Year,Month,Day,Hour,Minute,Value (Times are PST for temperature in C)
2013,07,17,00,00,17.80
2013,07,17,00,01,17.80
2013,07,17,00,02,17.80
2013,07,17,00,03,17.80
2013,07,17,00,04,17.80
2013,07,17,00,05,17.80
2013,07,17,00,06,17.80
2013,07,17,00,07,17.80
2013,07,17,00,08,17.80
2013,07,17,00,09,17.80
2013,07,17,00,10,17.70
2013,07,17,00,11,17.70
2013,07,17,00,12,17.70
2013,07,17,00,13,17.70
2013,07,17,00,14,17.70
2013,07,17,00,15,17.70
2013,07,17,00,16,17.70
2013,07,17,00,17,17.70
2013,07,17,00,18,17.70
2013,07,17,00,19,17.70
2013,07,17,00,20,17.70
2013,07,17,00,21,17.60
2013,07,17,00,22,17.60
2013,07,17,00,23,17.60
2013,07,17,00,24,17.60
2013,07,17,00,25,17.60
2013,07,17,00,26,17.60
2013,07,17,00,27,17.60
2013,07,17,00,28,17.60
2013,07,17,00,29,17.60
2013,07,17,00,30,17.60
2013,07,17,00,31,17.60
2013,07,17,00,32,17.60
2013,07,17,00,33,17.70
2013,07,17,00,34,17.70
2013,07,17,00,35,17.70
2013,07,17,00,36,17.70
2013,07,17,00,37,17.70
2013,07,17,00,38,17.70
2013,07,17,00,39,17.70
2013,07,17,00,40,17.80
2013,07,17,00,41,17.80
2013,07,17,00,42,17.80
2013,07,17,00,43,17.80
2013,07,17,00,44,17.60
2013,07,17,00,45,17.50
2013,07,17,00,46,17.40
2013,07,17,00,47,17.30
2013,07,17,00,48,17.10
2013,07,17,00,49,16.90
2013,07,17,00,50,16.80
2013,07,17,00,51,16.70
2013,07,17,00,52,16.60
2013,07,17,00,53,16.40
2013,07,17,00,54,16.40
2013,07,17,00,55,16.30
2013,07,17,00,56,16.20
2013,07,17,00,57,16.10
2013,07,17,00,58,16.10
2013,07,17,00,59,16.10
2013,07,17,01,00,16.10
2013,07,17,01,01,15.90
2013,07,17,01,02,15.90
2013,07,17,01,03,15.90
2013,07,17,01,04,15.90
2013,07,17,01,05,15.90
2013,07,17,01,06,15.90
2013,07,17,01,07,15.90
2013,07,17,01,08,15.90
2013,07,17,01,09,15.90
2013,07,17,01,10,15.90
2013,07,17,01,11,15.90
2013,07,17,01,12,15.90
2013,07,17,01,13,16.00
2013,07,17,01,14,16.10
2013,07,17,01,15,16.10
2013,07,17,01,16,16.10
2013,07,17,01,17,16.10
2013,07,17,01,18,16.00
2013,07,17,01,19,15.90
2013,07,17,01,20,15.90
2013,07,17,01,21,15.80
2013,07,17,01,22,15.80
2013,07,17,01,23,15.70
2013,07,17,01,24,15.70
2013,07,17,01,25,15.60
2013,07,17,01,26,15.60
2013,07,17,01,27,15.60
2013,07,17,01,28,15.60
2013,07,17,01,29,15.70
2013,07,17,01,30,15.70
2013,07,17,01,31,15.80
2013,07,17,01,32,15.80
2013,07,17,01,33,15.80
2013,07,17,01,34,15.80
2013,07,17,01,35,15.80
2013,07,17,01,36,15.80
2013,07,17,01,37,15.90
2013,07,17,01,38,15.90
2013,07,17,01,39,15.90
2013,07,17,01,40,16.10
2013,07,17,01,41,16.10
2013,07,17,01,42,16.20
2013,07,17,01,43,16.40
2013,07,17,01,44,16.40
2013,07,17,01,45,16.60
2013,07,17,01,46,16.70
2013,07,17,01,47,16.90
2013,07,17,01,48,16.90
2013,07,17,01,49,17.10
2013,07,17,01,50,17.40
2013,07,17,01,51,17.50
2013,07,17,01,52,17.60
2013,07,17,01,53,17.60
2013,07,17,01,54,17.70
2013,07,17,01,55,17.80
2013,07,17,01,56,17.90
2013,07,17,01,57,17.90
2013,07,17,01,58,17.80
2013,07,17,01,59,17.70
2013,07,17,02,00,17.70
2013,07,17,02,01,17.60
2013,07,17,02,02,17.50
2013,07,17,02,03,17.40
2013,07,17,02,04,17.30
2013,07,17,02,05,17.30
2013,07,17,02,06,17.30
2013,07,17,02,07,17.30
2013,07,17,02,08,17.30
2013,07,17,02,09,17.30
2013,07,17,02,10,17.40
2013,07,17,02,11,17.60
2013,07,17,02,12,17.80
2013,07,17,02,13,17.90
2013,07,17,02,14,17.90
2013,07,17,02,15,17.80
2013,07,17,02,16,17.70
2013,07,17,02,17,17.60
2013,07,17,02,18,17.50
2013,07,17,02,19,17.40
2013,07,17,02,20,17.30
2013,07,17,02,21,17.30
2013,07,17,02,22,17.30
2013,07,17,02,23,17.30
2013,07,17,02,24,17.20
2013,07,17,02,25,17.20
2013,07,17,02,26,17.20
2013,07,17,02,27,17.20
2013,07,17,02,28,17.20
2013,07,17,02,29,17.00
2013,07,17,02,30,16.90
2013,07,17,02,31,16.60
2013,07,17,02,32,16.40
2013,07,17,02,33,16.20
2013,07,17,02,34,16.10
2013,07,17,02,35,16.10
2013,07,17,02,36,16.00
2013,07,17,02,37,15.80
2013,07,17,02,38,15.70
2013,07,17,02,39,15.60
2013,07,17,02,40,15.50
2013,07,17,02,41,15.50
2013,07,17,02,42,15.50
2013,07,17,02,43,15.60
2013,07,17,02,44,15.60
2013,07,17,02,45,15.50
2013,07,17,02,46,15.50
2013,07,17,02,47,15.50
2013,07,17,02,48,15.50
2013,07,17,02,49,15.50
2013,07,17,02,50,15.60
2013,07,17,02,51,15.70
2013,07,17,02,52,15.80
2013,07,17,02,53,16.00
2013,07,17,02,54,16.20
2013,07,17,02,55,16.30
2013,07,17,02,56,16.40
2013,07,17,02,57,16.50
2013,07,17,02,58,16.60
2013,07,17,02,59,16.70
2013,07,17,03,00,16.70
2013,07,17,03,01,16.70
2013,07,17,03,02,16.70
2013,07,17,03,03,16.80
2013,07,17,03,04,16.90
2013,07,17,03,05,16.90
2013,07,17,03,06,16.90
2013,07,17,03,07,17.00
2013,07,17,03,08,17.00
2013,07,17,03,09,17.00
2013,07,17,03,10,17.10
2013,07,17,03,11,17.20
2013,07,17,03,12,17.20
2013,07,17,03,13,17.30
2013,07,17,03,14,17.30
2013,07,17,03,15,17.40
2013,07,17,03,16,17.50
2013,07,17,03,17,17.60
2013,07,17,03,18,17.70
2013,07,17,03,19,17.70
2013,07,17,03,20,17.80
2013,07,17,03,21,17.80
2013,07,17,03,22,17.90
2013,07,17,03,23,17.90
2013,07,17,03,24,17.90
2013,07,17,03,25,17.90
2013,07,17,03,26,18.00
2013,07,17,03,27,18.10
2013,07,17,03,28,18.10
2013,07,17,03,29,18.20
2013,07,17,03,30,18.20
2013,07,17,03,31,18.20
2013,07,17,03,32,18.20
2013,07,17,03,33,18.30
2013,07,17,03,34,18.30
2013,07,17,03,35,18.40
2013,07,17,03,36,18.40
2013,07,17,03,37,18.50
2013,07,17,03,38,18.50
2013,07,17,03,39,18.60
2013,07,17,03,40,18.60
2013,07,17,03,41,18.60
2013,07,17,03,42,18.70
2013,07,17,03,43,18.70
2013,07,17,03,44,18.70
2013,07,17,03,45,18.80
2013,07,17,03,46,18.80
2013,07,17,03,47,18.80
2013,07,17,03,48,18.80
2013,07,17,03,49,18.80
2013,07,17,03,50,18.90
2013,07,17,03,51,18.90
2013,07,17,03,52,18.90
2013,07,17,03,53,18.90
2013,07,17,03,54,18.90
2013,07,17,03,55,18.90
2013,07,17,03,56,19.10
2013,07,17,03,57,19.10
2013,07,17,03,58,19.10
2013,07,17,03,59,19.10
2013,07,17,04,00,19.10
2013,07,17,04,01,19.10
2013,07,17,04,02,19.10
2013,07,17,04,03,19.10
2013,07,17,04,04,19.10
2013,07,17,04,05,19.10
2013,07,17,04,06,19.10
2013,07,17,04,07,19.10
2013,07,17,04,08,19.10
2013,07,17,04,09,19.10
2013,07,17,04,10,19.10
2013,07,17,04,11,19.10
2013,07,17,04,12,19.20
2013,07,17,04,13,19.20
2013,07,17,04,14,19.20
2013,07,17,04,15,19.10
2013,07,17,04,16,19.10
2013,07,17,04,17,19.10
2013,07,17,04,18,19.10
2013,07,17,04,19,19.10
2013,07,17,04,20,19.10
2013,07,17,04,21,19.20
2013,07,17,04,22,19.20
2013,07,17,04,23,19.20
2013,07,17,04,24,19.10
2013,07,17,04,25,19.10
2013,07,17,04,26,19.10
2013,07,17,04,27,19.10
2013,07,17,04,28,19.10
2013,07,17,04,29,19.10
2013,07,17,04,30,19.00
2013,07,17,04,31,18.90
2013,07,17,04,32,18.90
2013,07,17,04,33,18.90
2013,07,17,04,34,18.90
2013,07,17,04,35,18.90
2013,07,17,04,36,18.90
2013,07,17,04,37,18.90
2013,07,17,04,38,18.90
2013,07,17,04,39,18.90
2013,07,17,04,40,18.80
2013,07,17,04,41,18.80
2013,07,17,04,42,18.80
2013,07,17,04,43,18.80
2013,07,17,04,44,18.80
2013,07,17,04,45,18.80
2013,07,17,04,46,18.70
2013,07,17,04,47,18.70
2013,07,17,04,48,18.70
2013,07,17,04,49,18.70
2013,07,17,04,50,18.70
2013,07,17,04,51,18.70
2013,07,17,04,52,18.70
2013,07,17,04,53,18.70
2013,07,17,04,54,18.70
2013,07,17,04,55,18.70
2013,07,17,04,56,18.70
2013,07,17,04,57,18.70
2013,07,17,04,58,18.80
2013,07,17,04,59,18.80
2013,07,17,05,00,18.90
2013,07,17,05,01,18.90
2013,07,17,05,02,18.90
2013,07,17,05,03,18.90
2013,07,17,05,04,18.80
2013,07,17,05,05,18.80
2013,07,17,05,06,18.70
2013,07,17,05,07,18.70
2013,07,17,05,08,18.70
2013,07,17,05,09,18.60
2013,07,17,05,10,18.60
2013,07,17,05,11,18.60
2013,07,17,05,12,18.50
2013,07,17,05,13,18.50
2013,07,17,05,14,18.50
2013,07,17,05,15,18.60
2013,07,17,05,16,18.70
2013,07,17,05,17,18.70
2013,07,17,05,18,18.70
2013,07,17,05,19,18.60
2013,07,17,05,20,18.60
2013,07,17,05,21,18.60
2013,07,17,05,22,18.50
2013,07,17,05,23,18.50
2013,07,17,05,24,18.40
2013,07,17,05,25,18.30
2013,07,17,05,26,18.30
2013,07,17,05,27,18.20
2013,07,17,05,28,18.20
2013,07,17,05,29,18.20
2013,07,17,05,30,18.10
2013,07,17,05,31,18.00
2013,07,17,05,32,17.90
2013,07,17,05,33,17.90
2013,07,17,05,34,17.90
2013,07,17,05,35,18.00
2013,07,17,05,36,18.10
2013,07,17,05,37,18.00
2013,07,17,05,38,17.90
2013,07,17,05,39,17.80
2013,07,17,05,40,17.60
2013,07,17,05,41,17.50
2013,07,17,05,42,17.30
2013,07,17,05,43,17.20
2013,07,17,05,44,17.10
2013,07,17,05,45,17.00
2013,07,17,05,46,16.90
2013,07,17,05,47,16.70
2013,07,17,05,48,16.60
2013,07,17,05,49,16.40
2013,07,17,05,50,16.30
2013,07,17,05,51,16.30
2013,07,17,05,52,16.20
2013,07,17,05,53,16.20
2013,07,17,05,54,16.20
2013,07,17,05,55,16.30
2013,07,17,05,56,16.40
2013,07,17,05,57,16.40
2013,07,17,05,58,16.40
2013,07,17,05,59,16.40
2013,07,17,06,00,16.40
2013,07,17,06,01,16.50
2013,07,17,06,02,16.60
2013,07,17,06,03,16.60
2013,07,17,06,04,16.70
2013,07,17,06,05,16.70
2013,07,17,06,06,16.80
2013,07,17,06,07,16.80
2013,07,17,06,08,16.90
2013,07,17,06,09,17.00
2013,07,17,06,10,17.00
2013,07,17,06,11,17.10
2013,07,17,06,12,17.10
2013,07,17,06,13,17.10
2013,07,17,06,14,17.10
2013,07,17,06,15,17.10
2013,07,17,06,16,17.10
2013,07,17,06,17,17.10
2013,07,17,06,18,17.00
2013,07,17,06,19,17.00
2013,07,17,06,20,16.90
2013,07,17,06,21,16.90
2013,07,17,06,22,16.80
2013,07,17,06,23,16.90
2013,07,17,06,24,16.90
2013,07,17,06,25,16.90
2013,07,17,06,26,16.90
2013,07,17,06,27,16.90
2013,07,17,06,28,16.90
2013,07,17,06,29,16.90
2013,07,17,06,30,16.90
2013,07,17,06,31,16.90
2013,07,17,06,32,16.90
2013,07,17,06,33,16.80
2013,07,17,06,34,16.80
2013,07,17,06,35,16.80
2013,07,17,06,36,16.80
2013,07,17,06,37,16.70
2013,07,17,06,38,16.70
2013,07,17,06,39,16.70
2013,07,17,06,40,16.70
2013,07,17,06,41,16.70
2013,07,17,06,42,16.70
2013,07,17,06,43,16.70
2013,07,17,06,44,16.70
2013,07,17,06,45,16.70
2013,07,17,06,46,16.70
2013,07,17,06,47,16.70
2013,07,17,06,48,16.70
2013,07,17,06,49,16.70
2013,07,17,06,50,16.70
2013,07,17,06,51,16.70
2013,07,17,06,52,16.70
2013,07,17,06,53,16.70
2013,07,17,06,54,16.70
2013,07,17,06,55,16.70
2013,07,17,06,56,16.70
2013,07,17,06,57,16.70
2013,07,17,06,58,16.70
2013,07,17,06,59,16.70
2013,07,17,07,00,16.70
2013,07,17,07,01,16.70
2013,07,17,07,02,16.80
2013,07,17,07,03,16.80
2013,07,17,07,04,16.80
2013,07,17,07,05,16.90
2013,07,17,07,06,16.90
2013,07,17,07,07,16.90
2013,07,17,07,08,16.90
2013,07,17,07,09,16.90
2013,07,17,07,10,16.90
2013,07,17,07,11,16.90
2013,07,17,07,12,16.90
2013,07,17,07,13,16.90
2013,07,17,07,14,16.90
2013,07,17,07,15,16.90
2013,07,17,07,16,16.90
2013,07,17,07,17,17.00
2013,07,17,07,18,17.00
2013,07,17,07,19,17.00
2013,07,17,07,20,17.00
2013,07,17,07,21,17.00
2013,07,17,07,22,17.00
2013,07,17,07,23,17.00
2013,07,17,07,24,17.00
2013,07,17,07,25,17.00
2013,07,17,07,26,17.00
2013,07,17,07,27,17.00
2013,07,17,07,28,17.00
2013,07,17,07,29,17.00
2013,07,17,07,30,17.10
2013,07,17,07,31,17.10
2013,07,17,07,32,17.10
2013,07,17,07,33,17.10
2013,07,17,07,34,17.10
2013,07,17,07,35,17.10
2013,07,17,07,36,17.20
2013,07,17,07,37,17.20
2013,07,17,07,38,17.20
2013,07,17,07,39,17.20
2013,07,17,07,40,17.30
2013,07,17,07,41,17.30
2013,07,17,07,42,17.30
2013,07,17,07,43,17.30
2013,07,17,07,44,17.30
2013,07,17,07,45,17.30
2013,07,17,07,46,17.40
2013,07,17,07,47,17.40
2013,07,17,07,48,17.50
2013,07,17,07,49,17.50
2013,07,17,07,50,17.50
2013,07,17,07,51,17.60
2013,07,17,07,52,17.60
2013,07,17,07,53,17.60
2013,07,17,07,54,17.70
2013,07,17,07,55,17.70
2013,07,17,07,56,17.70
2013,07,17,07,57,17.80
2013,07,17,07,58,17.80
2013,07,17,07,59,17.90
2013,07,17,08,00,17.90
2013,07,17,08,01,17.90
2013,07,17,08,02,17.90
2013,07,17,08,03,17.90
2013,07,17,08,04,17.90
2013,07,17,08,05,18.00
2013,07,17,08,06,18.10
2013,07,17,08,07,18.10
2013,07,17,08,08,18.10
2013,07,17,08,09,18.10
2013,07,17,08,10,18.10
2013,07,17,08,11,18.20
2013,07,17,08,12,18.20
2013,07,17,08,13,18.20
2013,07,17,08,14,18.20
2013,07,17,08,15,18.20
2013,07,17,08,16,18.20
2013,07,17,08,17,18.20
2013,07,17,08,18,18.20
2013,07,17,08,19,18.20
2013,07,17,08,20,18.20
2013,07,17,08,21,18.20
2013,07,17,08,22,18.20
2013,07,17,08,23,18.10
2013,07,17,08,24,18.10
2013,07,17,08,25,18.10
2013,07,17,08,26,18.00
2013,07,17,08,27,17.90
2013,07,17,08,28,17.90
2013,07,17,08,29,17.90
2013,07,17,08,30,17.90
2013,07,17,08,31,17.90
2013,07,17,08,32,17.90
2013,07,17,08,33,17.90
2013,07,17,08,34,17.90
2013,07,17,08,35,17.90
2013,07,17,08,36,17.90
2013,07,17,08,37,17.80
2013,07,17,08,38,17.80
2013,07,17,08,39,17.80
2013,07,17,08,40,17.80
2013,07,17,08,41,17.80
2013,07,17,08,42,17.70
2013,07,17,08,43,17.70
2013,07,17,08,44,17.70
2013,07,17,08,45,17.70
2013,07,17,08,46,17.70
2013,07,17,08,47,17.70
2013,07,17,08,48,17.70
2013,07,17,08,49,17.70
2013,07,17,08,50,17.70
2013,07,17,08,51,17.70
2013,07,17,08,52,17.80
2013,07,17,08,53,17.80
2013,07,17,08,54,17.80
2013,07,17,08,55,17.80
2013,07,17,08,56,17.90
2013,07,17,08,57,17.90
2013,07,17,08,58,17.90
2013,07,17,08,59,17.90
2013,07,17,09,00,17.90
2013,07,17,09,01,17.80
2013,07,17,09,02,17.80
2013,07,17,09,03,17.70
2013,07,17,09,04,17.70
2013,07,17,09,05,17.70
2013,07,17,09,06,17.60
2013,07,17,09,07,17.60
2013,07,17,09,08,17.50
2013,07,17,09,09,17.50
2013,07,17,09,10,17.50
2013,07,17,09,11,17.50
2013,07,17,09,12,17.40
2013,07,17,09,13,17.40
2013,07,17,09,14,17.40
2013,07,17,09,15,17.40
2013,07,17,09,16,17.40
2013,07,17,09,17,17.40
2013,07,17,09,18,17.40
2013,07,17,09,19,17.50
2013,07,17,09,20,17.50
2013,07,17,09,21,17.60
2013,07,17,09,22,17.60
2013,07,17,09,23,17.60
2013,07,17,09,24,17.60
2013,07,17,09,25,17.60
2013,07,17,09,26,17.60
2013,07,17,09,27,17.60
2013,07,17,09,28,17.60
2013,07,17,09,29,17.70
2013,07,17,09,30,17.80
2013,07,17,09,31,17.80
2013,07,17,09,32,17.90
2013,07,17,09,33,17.90
2013,07,17,09,34,17.90
2013,07,17,09,35,18.10
2013,07,17,09,36,18.10
2013,07,17,09,37,18.10
2013,07,17,09,38,18.10
2013,07,17,09,39,18.10
2013,07,17,09,40,18.10
2013,07,17,09,41,18.10
2013,07,17,09,42,18.20
2013,07,17,09,43,18.20
2013,07,17,09,44,18.20
2013,07,17,09,45,18.10
2013,07,17,09,46,18.10
2013,07,17,09,47,18.10
2013,07,17,09,48,18.10
2013,07,17,09,49,18.10
2013,07,17,09,50,18.10
2013,07,17,09,51,18.20
2013,07,17,09,52,18.10
2013,07,17,09,53,18.10
2013,07,17,09,54,18.10
2013,07,17,09,55,18.10
2013,07,17,09,56,18.20
2013,07,17,09,57,18.20
2013,07,17,09,58,18.20
2013,07,17,09,59,18.10
2013,07,17,10,00,18.10
2013,07,17,10,01,18.10
2013,07,17,10,02,18.10
2013,07,17,10,03,18.20
2013,07,17,10,04,18.20
2013,07,17,10,05,18.20
2013,07,17,10,06,18.20
2013,07,17,10,07,18.20
2013,07,17,10,08,18.30
2013,07,17,10,09,18.30
2013,07,17,10,10,18.30
2013,07,17,10,11,18.30
2013,07,17,10,12,18.30
2013,07,17,10,13,18.30
2013,07,17,10,14,18.40
2013,07,17,10,15,18.40
2013,07,17,10,16,18.40
2013,07,17,10,17,18.50
2013,07,17,10,18,18.50
2013,07,17,10,19,18.60
2013,07,17,10,20,18.60
2013,07,17,10,21,18.70
2013,07,17,10,22,18.70
2013,07,17,10,23,18.70
2013,07,17,10,24,18.70
2013,07,17,10,25,18.60
2013,07,17,10,26,18.70
2013,07,17,10,27,18.60
2013,07,17,10,28,18.60
2013,07,17,10,29,18.60
2013,07,17,10,30,18.60
2013,07,17,10,31,18.60
2013,07,17,10,32,18.60
2013,07,17,10,33,18.60
2013,07,17,10,34,18.60
2013,07,17,10,35,18.70
2013,07,17,10,36,18.70
2013,07,17,10,37,18.70
2013,07,17,10,38,18.60
2013,07,17,10,39,18.70
2013,07,17,10,40,18.70
2013,07,17,10,41,18.80
2013,07,17,10,42,18.70
2013,07,17,10,43,18.60
2013,07,17,10,44,18.60
2013,07,17,10,45,18.60
2013,07,17,10,46,18.60
2013,07,17,10,47,18.60
2013,07,17,10,48,18.60
2013,07,17,10,49,18.70
2013,07,17,10,50,18.70
2013,07,17,10,51,18.80
2013,07,17,10,52,18.80
2013,07,17,10,53,18.80
2013,07,17,10,54,18.90
2013,07,17,10,55,18.80
2013,07,17,10,56,18.80
2013,07,17,10,57,18.80
2013,07,17,10,58,18.80
2013,07,17,10,59,18.90
2013,07,17,11,00,18.90
2013,07,17,11,01,18.90
2013,07,17,11,02,18.90
2013,07,17,11,03,18.80
2013,07,17,11,04,18.80
2013,07,17,11,05,18.70
2013,07,17,11,06,18.70
2013,07,17,11,07,18.80
2013,07,17,11,08,18.90
2013,07,17,11,09,18.90
2013,07,17,11,10,18.80
2013,07,17,11,11,18.80
2013,07,17,11,12,18.70
2013,07,17,11,13,18.70
2013,07,17,11,14,18.70
2013,07,17,11,15,18.70
2013,07,17,11,16,18.60
2013,07,17,11,17,18.50
2013,07,17,11,18,18.40
2013,07,17,11,19,18.40
2013,07,17,11,20,18.30
2013,07,17,11,21,18.20
2013,07,17,11,22,18.20
2013,07,17,11,23,18.30
2013,07,17,11,24,18.40
2013,07,17,11,25,18.40
2013,07,17,11,26,18.40
2013,07,17,11,27,18.50
2013,07,17,11,28,18.50
2013,07,17,11,29,18.40
2013,07,17,11,30,18.40
2013,07,17,11,31,18.40
2013,07,17,11,32,18.40
2013,07,17,11,33,18.30
2013,07,17,11,34,18.30
2013,07,17,11,35,18.20
2013,07,17,11,36,18.20
2013,07,17,11,37,18.30
2013,07,17,11,38,18.30
2013,07,17,11,39,18.40
2013,07,17,11,40,18.40
2013,07,17,11,41,18.50
2013,07,17,11,42,18.50
2013,07,17,11,43,18.50
2013,07,17,11,44,18.50
2013,07,17,11,45,18.60
2013,07,17,11,46,18.60
2013,07,17,11,47,18.50
2013,07,17,11,48,18.50
2013,07,17,11,49,18.50
2013,07,17,11,50,18.50
2013,07,17,11,51,18.50
2013,07,17,11,52,18.50
2013,07,17,11,53,18.50
2013,07,17,11,54,18.50
2013,07,17,11,55,18.60
2013,07,17,11,56,18.60
2013,07,17,11,57,18.70
2013,07,17,11,58,18.80
2013,07,17,11,59,18.80
2013,07,17,12,00,18.80
2013,07,17,12,01,18.90
2013,07,17,12,02,18.80
2013,07,17,12,03,18.80
2013,07,17,12,04,18.70
2013,07,17,12,05,18.60
2013,07,17,12,06,18.50
2013,07,17,12,07,18.50
2013,07,17,12,08,18.60
2013,07,17,12,09,18.60
2013,07,17,12,10,18.60
2013,07,17,12,11,18.70
2013,07,17,12,12,18.70
2013,07,17,12,13,18.70
2013,07,17,12,14,18.70
2013,07,17,12,15,18.60
2013,07,17,12,16,18.50
2013,07,17,12,17,18.50
2013,07,17,12,18,18.60
2013,07,17,12,19,18.60
2013,07,17,12,20,18.70
2013,07,17,12,21,18.80
2013,07,17,12,22,18.80
2013,07,17,12,23,18.70
2013,07,17,12,24,18.70
2013,07,17,12,25,18.70
2013,07,17,12,26,18.80
2013,07,17,12,27,18.90
2013,07,17,12,28,18.90
2013,07,17,12,29,18.90
2013,07,17,12,30,18.90
2013,07,17,12,31,18.90
2013,07,17,12,32,18.90
2013,07,17,12,33,18.90
2013,07,17,12,34,18.90
2013,07,17,12,35,18.90
2013,07,17,12,36,18.90
2013,07,17,12,37,18.90
2013,07,17,12,38,18.80
2013,07,17,12,39,18.80
2013,07,17,12,40,18.90
2013,07,17,12,41,18.90
2013,07,17,12,42,18.90
2013,07,17,12,43,18.90
2013,07,17,12,44,18.90
2013,07,17,12,45,18.80
2013,07,17,12,46,18.60
2013,07,17,12,47,18.60
2013,07,17,12,48,18.40
2013,07,17,12,49,18.50
2013,07,17,12,50,18.50
2013,07,17,12,51,18.50
2013,07,17,12,52,18.50
2013,07,17,12,53,18.50
2013,07,17,12,54,18.50
2013,07,17,12,55,18.50
2013,07,17,12,56,18.50
2013,07,17,12,57,18.70
2013,07,17,12,58,18.80
2013,07,17,12,59,18.70
2013,07,17,13,00,18.70
2013,07,17,13,01,18.60
2013,07,17,13,02,18.50
2013,07,17,13,03,18.50
2013,07,17,13,04,18.50
2013,07,17,13,05,18.50
2013,07,17,13,06,18.50
2013,07,17,13,07,18.50
2013,07,17,13,08,18.40
2013,07,17,13,09,18.40
2013,07,17,13,10,18.40
2013,07,17,13,11,18.40
2013,07,17,13,12,18.40
2013,07,17,13,13,18.40
2013,07,17,13,14,18.40
2013,07,17,13,15,18.50
2013,07,17,13,16,18.60
2013,07,17,13,17,18.60
2013,07,17,13,18,18.50
2013,07,17,13,19,18.50
2013,07,17,13,20,18.50
2013,07,17,13,21,18.50
2013,07,17,13,22,18.50
2013,07,17,13,23,18.50
2013,07,17,13,24,18.40
2013,07,17,13,25,18.30
2013,07,17,13,26,18.30
2013,07,17,13,27,18.30
2013,07,17,13,28,18.40
2013,07,17,13,29,18.40
2013,07,17,13,30,18.50
2013,07,17,13,31,18.50
2013,07,17,13,32,18.50
2013,07,17,13,33,18.50
2013,07,17,13,34,18.50
2013,07,17,13,35,18.50
2013,07,17,13,36,18.50
2013,07,17,13,37,18.50
2013,07,17,13,38,18.50
2013,07,17,13,39,18.50
2013,07,17,13,40,18.50
2013,07,17,13,41,18.50
2013,07,17,13,42,18.50
2013,07,17,13,43,18.60
2013,07,17,13,44,18.70
2013,07,17,13,45,18.80
2013,07,17,13,46,18.80
2013,07,17,13,47,18.80
2013,07,17,13,48,18.70
2013,07,17,13,49,18.50
2013,07,17,13,50,18.50
2013,07,17,13,51,18.40
2013,07,17,13,52,18.30
2013,07,17,13,53,18.30
2013,07,17,13,54,18.40
2013,07,17,13,55,18.50
2013,07,17,13,56,18.50
2013,07,17,13,57,18.50
2013,07,17,13,58,18.50
2013,07,17,13,59,18.50
2013,07,17,14,00,18.30
2013,07,17,14,01,18.20
2013,07,17,14,02,18.20
2013,07,17,14,03,18.20
2013,07,17,14,04,18.20
2013,07,17,14,05,18.20
2013,07,17,14,06,18.20
2013,07,17,14,07,18.20
2013,07,17,14,08,18.20
2013,07,17,14,09,18.20
2013,07,17,14,10,18.20
2013,07,17,14,11,18.20
2013,07,17,14,12,18.20
2013,07,17,14,13,18.20
2013,07,17,14,14,18.20
2013,07,17,14,15,18.30
2013,07,17,14,16,18.30
2013,07,17,14,17,18.30
2013,07,17,14,18,18.30
2013,07,17,14,19,18.30
2013,07,17,14,20,18.30
2013,07,17,14,21,18.30
2013,07,17,14,22,18.30
2013,07,17,14,23,18.30
2013,07,17,14,24,18.40
2013,07,17,14,25,18.40
2013,07,17,14,26,18.40
2013,07,17,14,27,18.30
2013,07,17,14,28,18.20
2013,07,17,14,29,18.40
2013,07,17,14,30,18.40
2013,07,17,14,31,18.40
2013,07,17,14,32,18.50
2013,07,17,14,33,18.50
2013,07,17,14,34,18.60
2013,07,17,14,35,18.60
2013,07,17,14,36,18.60
2013,07,17,14,37,18.60
2013,07,17,14,38,18.70
2013,07,17,14,39,18.70
2013,07,17,14,40,18.80
2013,07,17,14,41,18.80
2013,07,17,14,42,18.80
2013,07,17,14,43,18.70
2013,07,17,14,44,18.60
2013,07,17,14,45,18.50
2013,07,17,14,46,18.40
2013,07,17,14,47,18.30
2013,07,17,14,48,18.20
2013,07,17,14,49,18.20
2013,07,17,14,50,18.20
2013,07,17,14,51,18.40
2013,07,17,14,52,18.40
2013,07,17,14,53,18.50
2013,07,17,14,54,18.40
2013,07,17,14,55,18.40
2013,07,17,14,56,18.40
2013,07,17,14,57,18.40
2013,07,17,14,58,18.40
2013,07,17,14,59,18.40
2013,07,17,15,00,18.40
2013,07,17,15,01,18.50
2013,07,17,15,02,18.50
2013,07,17,15,03,18.40
2013,07,17,15,04,18.30
2013,07,17,15,05,18.30
2013,07,17,15,06,18.20
2013,07,17,15,07,18.30
2013,07,17,15,08,18.30
2013,07,17,15,09,18.40
2013,07,17,15,10,18.50
2013,07,17,15,11,18.50
2013,07,17,15,12,18.60
2013,07,17,15,13,18.70
2013,07,17,15,14,18.70
2013,07,17,15,15,18.70
2013,07,17,15,16,18.60
2013,07,17,15,17,18.60
2013,07,17,15,18,18.60
2013,07,17,15,19,18.70
2013,07,17,15,20,18.70
2013,07,17,15,21,18.70
2013,07,17,15,22,18.70
2013,07,17,15,23,18.70
2013,07,17,15,24,18.70
2013,07,17,15,25,18.80
2013,07,17,15,26,18.70
2013,07,17,15,27,18.60
2013,07,17,15,28,18.50
2013,07,17,15,29,18.50
2013,07,17,15,30,18.50
2013,07,17,15,31,18.50
2013,07,17,15,32,18.40
2013,07,17,15,33,18.40
2013,07,17,15,34,18.50
2013,07,17,15,35,18.60
2013,07,17,15,36,18.50
2013,07,17,15,37,18.50
2013,07,17,15,38,18.60
2013,07,17,15,39,18.70
2013,07,17,15,40,18.60
2013,07,17,15,41,18.60
2013,07,17,15,42,18.60
2013,07,17,15,43,18.60
2013,07,17,15,44,18.60
2013,07,17,15,45,18.60
2013,07,17,15,46,18.70
2013,07,17,15,47,18.70
2013,07,17,15,48,18.60
2013,07,17,15,49,18.70
2013,07,17,15,50,18.60
2013,07,17,15,51,18.50
2013,07,17,15,52,18.50
2013,07,17,15,53,18.60
2013,07,17,15,54,18.60
2013,07,17,15,55,18.60
2013,07,17,15,56,18.60
2013,07,17,15,57,18.60
2013,07,17,15,58,18.50
2013,07,17,15,59,18.50
2013,07,17,16,00,18.40
2013,07,17,16,01,18.50
2013,07,17,16,02,18.60
2013,07,17,16,03,18.60
2013,07,17,16,04,18.70
2013,07,17,16,05,18.70
2013,07,17,16,06,18.70
2013,07,17,16,07,18.70
2013,07,17,16,08,18.60
2013,07,17,16,09,18.60
2013,07,17,16,10,18.60
2013,07,17,16,11,18.60
2013,07,17,16,12,18.70
2013,07,17,16,13,18.70
2013,07,17,16,14,18.70
2013,07,17,16,15,18.60
2013,07,17,16,16,18.60
2013,07,17,16,17,18.70
2013,07,17,16,18,18.70
2013,07,17,16,19,18.70
2013,07,17,16,20,18.70
2013,07,17,16,21,18.60
2013,07,17,16,22,18.70
2013,07,17,16,23,18.70
2013,07,17,16,24,18.80
2013,07,17,16,25,18.70
2013,07,17,16,26,18.70
2013,07,17,16,27,18.80
2013,07,17,16,28,18.80
2013,07,17,16,29,18.80
2013,07,17,16,30,18.80
2013,07,17,16,31,18.80
2013,07,17,16,32,18.70
2013,07,17,16,33,18.70
2013,07,17,16,34,18.60
2013,07,17,16,35,18.60
2013,07,17,16,36,18.50
2013,07,17,16,37,18.50
2013,07,17,16,38,18.60
2013,07,17,16,39,18.60
2013,07,17,16,40,18.70
2013,07,17,16,41,18.70
2013,07,17,16,42,18.70
2013,07,17,16,43,18.60
2013,07,17,16,44,18.50
2013,07,17,16,45,18.40
2013,07,17,16,46,18.40
2013,07,17,16,47,18.50
2013,07,17,16,48,18.50
2013,07,17,16,49,18.50
2013,07,17,16,50,18.50
2013,07,17,16,51,18.60
2013,07,17,16,52,18.50
2013,07,17,16,53,18.50
2013,07,17,16,54,18.40
2013,07,17,16,55,18.40
2013,07,17,16,56,18.50
2013,07,17,16,57,18.50
2013,07,17,16,58,18.50
2013,07,17,16,59,18.50
2013,07,17,17,00,18.50
2013,07,17,17,01,18.50
2013,07,17,17,02,18.50
2013,07,17,17,03,18.50
2013,07,17,17,04,18.40
2013,07,17,17,05,18.40
2013,07,17,17,06,18.50
2013,07,17,17,07,18.50
2013,07,17,17,08,18.60
2013,07,17,17,09,18.60
2013,07,17,17,10,18.50
2013,07,17,17,11,18.50
2013,07,17,17,12,18.50
2013,07,17,17,13,18.60
2013,07,17,17,14,18.60
2013,07,17,17,15,18.60
2013,07,17,17,16,18.70
2013,07,17,17,17,18.70
2013,07,17,17,18,18.80
2013,07,17,17,19,18.80